FW9892 Weather Reports


time (UTC)temp
C
wind
direction
speed
KPH
gust
KPH
rain 1hr
cm
rain 24hr
cm
rain mn
cm
humidity
%
barometer
mb
20260507154558 15 0 0.0 6.4 0.00 0.00 0.00 60 1015.8
20260507153106 15 0 0.0 4.8 0.00 0.00 0.00 62 1015.8
20260507151601 15 360 0.0 3.2 0.00 0.00 0.00 59 1015.7
20260507150108 15 0 0.0 0.0 0.00 0.00 0.00 60 1015.8
20260507144609 15 0 0.0 1.6 0.00 0.00 0.00 60 1015.7
20260507143054 15 0 0.0 1.6 0.00 0.00 0.00 57 1015.6
20260507141602 15 0 0.0 3.2 0.00 0.00 0.00 59 1015.9
20260507140116 15 0 0.0 6.4 0.00 0.00 0.00 59 1015.9
20260507134556 15 0 0.0 1.6 0.00 0.00 0.00 63 1016.0
20260507133057 15 0 0.0 6.4 0.00 0.00 0.00 59 1015.9
20260507131604 15 0 0.0 8.0 0.00 0.00 0.00 58 1015.9
20260507130111 15 0 0.0 3.2 0.00 0.00 0.00 59 1015.9
20260507124607 15 0 0.0 3.2 0.00 0.00 0.00 58 1015.9
20260507123101 15 360 1.6 8.0 0.00 0.00 0.00 56 1015.9
20260507121556 15 0 0.0 8.0 0.00 0.00 0.00 56 1015.8
20260507120050 16 121 0.0 12.9 0.00 0.00 0.00 57 1015.7
20260507114555 15 0 0.0 9.7 0.00 0.00 0.00 65 1015.8
20260507113055 14 0 0.0 4.8 0.00 0.00 0.00 62 1015.8
20260507111552 14 0 0.0 12.9 0.00 0.00 0.00 63 1015.8
20260507110054 15 0 0.0 9.7 0.00 0.00 0.00 60 1015.9
20260507104550 15 360 1.6 14.5 0.00 0.00 0.00 61 1015.9
20260507103055 15 0 3.2 12.9 0.00 0.00 0.00 64 1015.8
20260507101555 13 0 1.6 8.0 0.00 0.00 0.00 65 1015.8
20260507100057 13 0 0.0 12.9 0.00 0.00 0.00 67 1015.8
20260507093051 15 0 0.0 6.4 0.00 0.00 0.00 74 1015.7
20260507091551 13 0 0.0 3.2 0.00 0.00 0.00 74 1015.6
20260507090051 13 0 0.0 3.2 0.00 0.00 0.00 72 1015.6
20260507084553 13 0 0.0 3.2 0.00 0.00 0.00 75 1015.5
20260507083050 12 0 0.0 1.6 0.00 0.00 0.00 77 1015.5
20260507081550 12 0 0.0 4.8 0.00 0.00 0.00 78 1015.4
20260507080126 12 0 0.0 3.2 0.00 0.00 0.00 82 1015.2
20260507074558 11 0 0.0 3.2 0.00 0.03 0.00 81 1015.3
20260507073058 11 0 0.0 0.0 0.00 0.03 0.00 81 1015.2
20260507071603 11 0 0.0 0.0 0.00 0.03 0.00 83 1015.0
20260507070055 10 0 0.0 0.0 0.00 0.03 0.00 84 1015.0
20260507064557 10 0 0.0 0.0 0.00 0.08 0.00 84 1015.0
20260507063054 10 0 0.0 0.0 0.00 0.08 0.00 84 1015.0
20260507061553 9 0 0.0 0.0 0.00 0.08 0.00 84 1014.8
20260507060050 9 0 0.0 0.0 0.00 0.08 0.00 86 1014.7
20260507054555 8 0 0.0 0.0 0.00 0.13 0.00 88 1014.6
20260507053049 8 0 0.0 0.0 0.00 0.13 0.00 89 1014.3
20260507051549 8 0 0.0 0.0 0.00 0.13 0.00 89 1014.4
20260507050055 8 0 0.0 0.0 0.00 0.13 0.00 90 1014.2
20260507044618 8 0 0.0 0.0 0.00 0.18 0.00 90 1014.2
20260507043053 8 0 0.0 0.0 0.00 0.18 0.00 90 1013.9
20260507041559 8 0 0.0 0.0 0.00 0.18 0.00 89 1013.8
20260507040104 8 0 0.0 0.0 0.00 0.18 0.00 89 1013.7
20260507034558 8 0 0.0 0.0 0.00 0.20 0.00 87 1013.7
20260507033049 8 0 0.0 0.0 0.00 0.20 0.00 87 1013.6
20260507031548 8 0 0.0 0.0 0.00 0.20 0.00 88 1013.6
20260507030053 8 0 0.0 0.0 0.00 0.20 0.00 89 1013.5
20260507024548 8 0 0.0 0.0 0.00 0.28 0.00 88 1013.4
20260507023051 8 0 0.0 0.0 0.00 0.28 0.00 89 1013.4
20260507021550 8 0 0.0 0.0 0.00 0.28 0.00 89 1013.3
20260507014601 8 0 0.0 0.0 0.00 0.41 0.00 88 1013.1
20260507013049 8 0 0.0 0.0 0.00 0.41 0.00 88 1013.2
20260507011601 8 0 0.0 0.0 0.00 0.41 0.00 88 1013.1
20260507010048 8 0 0.0 0.0 0.00 0.41 0.00 87 1013.2
20260507004550 8 0 0.0 0.0 0.00 0.56 0.00 87 1013.2
20260507003050 8 0 0.0 0.0 0.00 0.56 0.00 87 1013.1
20260507001612 8 0 0.0 0.0 0.00 0.56 0.00 88 1013.0
20260507000057 8 0 0.0 0.0 0.00 0.56 0.00 89 1013.0
20260506234548 8 0 0.0 0.0 0.00 0.66 0.00 89 1013.0
20260506233059 8 0 0.0 0.0 0.00 0.66 0.00 89 1012.9
20260506231557 8 0 0.0 0.0 0.00 0.66 0.00 89 1012.8
20260506230053 8 0 0.0 0.0 0.00 0.66 0.00 89 1012.7
20260506224557 8 0 0.0 0.0 0.00 0.81 0.00 89 1012.5
20260506223059 8 0 0.0 0.0 0.00 0.81 0.00 89 1012.4
20260506221553 8 0 0.0 0.0 0.00 0.81 0.00 89 1012.4
20260506220059 8 0 0.0 0.0 0.00 0.81 0.00 89 1012.1
20260506214548 8 0 0.0 0.0 0.00 1.02 0.81 89 1012.2
20260506213100 8 0 0.0 0.0 0.00 1.02 0.81 88 1012.0
20260506211552 8 0 0.0 8.0 0.00 1.02 0.81 88 1012.0
20260506210114 8 0 0.0 0.0 0.00 1.02 0.81 87 1011.9
20260506204556 8 0 0.0 6.4 0.00 1.22 0.81 86 1011.8
20260506203139 8 0 0.0 6.4 0.00 1.22 0.81 86 1011.7
20260506201554 8 0 0.0 3.2 0.00 1.22 0.81 86 1011.4
20260506200054 8 0 0.0 0.0 0.00 1.22 0.81 83 1011.5
20260506194556 8 0 0.0 0.0 0.00 1.45 0.81 82 1011.2
20260506193052 9 0 0.0 6.4 0.00 1.45 0.81 81 1011.1
20260506191605 9 0 0.0 8.0 0.00 1.45 0.81 80 1010.9
20260506190054 10 0 0.0 8.0 0.00 1.45 0.81 79 1010.7
20260506184559 10 360 0.0 8.0 0.00 1.50 0.81 77 1010.6
20260506183057 11 0 0.0 12.9 0.00 1.50 0.81 74 1010.5
20260506181613 11 0 0.0 6.4 0.00 1.50 0.81 73 1010.2
20260506174607 11 360 0.0 8.0 0.00 1.50 0.81 73 1009.8
20260506173055 12 0 0.0 12.9 0.00 1.50 0.81 74 1009.6
20260506171606 12 360 4.8 14.5 0.00 1.50 0.81 74 1009.6
20260506170054 12 360 0.0 12.9 0.00 1.50 0.81 75 1009.3
20260506164558 13 360 1.6 11.3 0.00 1.50 0.81 72 1009.2
20260506163121 13 0 0.0 4.8 0.00 1.50 0.81 72 1009.2
20260506161554 13 0 0.0 6.4 0.00 1.50 0.81 73 1009.1